Location: Berlin
(42.3812°N, 71.6370°W)
Time: 05:45:37
(UTC+00:00)

Resurs 01 Rocket - Pass Details

Date: 15 November 2025
Orbit: 626 x 637 km, 97.7° (Epoch: 09 December)

Event Time Altitude Azimuth Distance (km) Brightness Sun altitude
Exits shadow 00:12:13 11° 343° (NNW) 1,965 4.3 -30.9°
Drops below altitude 10° 00:12:25 10° 343° (NNW) 2,048 4.4 -30.9°
Sets 00:14:37 0° 346° (NNW) 2,946 5.2 -31.3°
